Regional Weather Roundup
Issued by NWS Goodland, KS

Home | Current Version | Previous Version | Graphics & Text | Print | Product List | Glossary On
Versions: 1 2 3 4 5 6 7 8 9 10 11 12 13 14 15 16 17 18 19 20 21 22 23 24 25 26 27 28 29 30 31 32 33 34 35 36 37 38 39 40 41 42 43 44 45 46 47 48 49 50
197
ASUS43 KGLD 031759
RWRGLD

GOODLAND FORECAST AREA HOURLY WEATHER ROUNDUP
NATIONAL WEATHER SERVICE GOODLAND KS
1100 AM MST SAT DEC 03 2016

...OFFICIAL OBSERVATIONS...

CITY           SKY/WX    TMP DP  RH WIND       PRES   REMARKS
GOODLAND KS    CLOUDY    35  26  69 S12       30.06F
HILL CITY KS   CLOUDY    34  33  96 SE3       30.16F FOG
IMPERIAL NEB   NOT AVBL
MCCOOK NEB     NOT AVBL
AKRON CO       SUNNY     34  20  56 W13       30.00F
BURLINGTON CO  MOSUNNY   40  25  55 SW14      30.03F
LIMON CO       SUNNY     37  21  52 CALM      29.99F
$$

...UNOFFICIAL OBSERVATIONS...

CITY           SKY/WX    TMP DP  RH WIND       PRES   REMARKS
COLBY KS       CLOUDY    36  34  93 S7        30.11F
LENORA KS        N/A     34  32  92 MISG        N/A
NORTON KS      FLURRIES  34  28  80 SE6       30.14F
SHARON SPRINGS   N/A     36  29  75 SE12        N/A
TRENTON NEB      N/A     41  32  70 S9          N/A
KIT CARSON CO    N/A     37  26  64 MISG        N/A
YUMA CO        FAIR      36  21  55 SW9       30.02F
$$




USA.gov is the U.S. government's official web portal to all federal, state and local government web resources and services.